Weather History for KFMY - June, 2012

Change the Weather History Date:

Wednesday, June 6, 2012

  Actual Average Record
Temperature  
Mean Temperature 81 °F 82 °F  
Max Temperature 87 °F 91 °F 98 °F (1945)
Min Temperature 75 °F 73 °F 62 °F (1955)
Degree Days  
Heating Degree Days 0 0  
Month to date heating degree days 0 0  
Since 1 June heating degree days 0 0  
Since 1 July heating degree days 129 287  
Cooling Degree Days 16 17  
Month to date cooling degree days 105 102  
Year to date cooling degree days 1543 1168  
Since 1 June cooling degree days 105 102  
Growing Degree Days 30 (Base 50)    
Moisture  
Dew Point 73 °F    
Average Humidity 74    
Maximum Humidity 85    
Minimum Humidity 65    
Precipitation  
Precipitation 0.01 in 0.28 in 4.21 in (1912)
Month to date precipitation 0.58 1.46  
Year to date precipitation 10.56 13.26  
Sea Level Pressure  
Sea Level Pressure 29.91 in    
Wind  
Wind Speed 7 mph (South)    
Max Wind Speed 16 mph    
Max Gust Speed 23 mph    
Visibility 9 miles    
Events      
T = Trace of Precipitation, MM = Missing Value Source: NWS Daily Summary

Daily Weather History Graph

Daily Weather History Graph

Search for Another Location

Airport or City:

Trip Planner

Search our weather history database for the weather conditions in past years. The results will help you decide how hot, cold, wet, or windy it might be!

Date:

Astronomy

Jun. 06, 2012 Rise Set
Actual Time 6:33 AM EDT 8:18 PM EDT
Civil Twilight 6:07 AM EDT 8:45 PM EDT
Nautical Twilight 5:36 AM EDT 9:16 PM EDT
Astronomical Twilight 5:03 AM EDT 9:49 PM EDT
Moon 10:38 PM EDT (6/6) 8:47 AM EDT (6/6)
Length of Visible Light 14h 37m
Length of Day
13h 45m
Waning Gibbous, 93% of the Moon is Illuminated
Jun 6
Waning Gibbous
Jun 11
Last Quarter
Jun 19
New
Jun 26
First Quarter
Jul 3
Full

Hourly Weather History & Observations

Time (EDT) Temp. Heat Index Dew Point Humidity Pressure Visibility Wind Dir Wind Speed Gust Speed Precip Events Conditions
12:53 AM 82.0 °F 87.9 °F 73.9 °F 76% 29.90 in 9.0 mi Calm Calm - N/A   Clear
1:53 AM 80.1 °F 85.1 °F 75.0 °F 85% 29.87 in 8.0 mi East 6.9 mph - N/A   Scattered Clouds
2:53 AM 80.1 °F 85.1 °F 75.0 °F 85% 29.88 in 9.0 mi SSE 3.5 mph - N/A   Clear
4:53 AM 80.1 °F 85.1 °F 75.0 °F 85% 29.88 in 8.0 mi SSE 3.5 mph - N/A   Clear
5:53 AM 80.1 °F 84.5 °F 73.9 °F 81% 29.88 in 8.0 mi SSE 6.9 mph - N/A   Mostly Cloudy
6:53 AM 79.0 °F - 69.1 °F 72% 29.90 in 10.0 mi SSE 15.0 mph 18.4 mph N/A   Mostly Cloudy
7:53 AM 75.9 °F - 68.0 °F 76% 29.90 in 10.0 mi SE 6.9 mph - 0.01 in   Overcast
8:53 AM 75.0 °F - 66.9 °F 76% 29.92 in 10.0 mi SSE 6.9 mph - 0.00 in   Mostly Cloudy
9:53 AM 79.0 °F - 69.1 °F 72% 29.91 in 10.0 mi SSE 6.9 mph - N/A   Clear
10:53 AM 81.0 °F 85.2 °F 72.0 °F 74% 29.91 in 10.0 mi SSE 5.8 mph - N/A   Clear
11:53 AM 82.9 °F 90.2 °F 75.0 °F 77% 29.92 in 9.0 mi South 3.5 mph - N/A   Partly Cloudy
12:53 PM 84.9 °F 93.3 °F 75.0 °F 72% 29.92 in 9.0 mi SSW 12.7 mph 19.6 mph N/A   Partly Cloudy
1:53 PM 86.0 °F 93.8 °F 73.9 °F 67% 29.92 in 9.0 mi SSW 9.2 mph - N/A   Scattered Clouds
2:53 PM 84.9 °F 93.3 °F 75.0 °F 72% 29.91 in 9.0 mi SSW 10.4 mph - N/A   Scattered Clouds
3:53 PM 86.0 °F 93.0 °F 73.0 °F 65% 29.91 in 9.0 mi SSW 11.5 mph 21.9 mph N/A   Mostly Cloudy
5:53 PM 86.0 °F 93.0 °F 73.0 °F 65% 29.91 in 9.0 mi SSW 11.5 mph 17.3 mph N/A   Partly Cloudy
6:53 PM 84.9 °F 92.1 °F 73.9 °F 69% 29.91 in 8.0 mi SSW 9.2 mph - N/A   Clear
8:53 PM 82.9 °F 88.8 °F 73.0 °F 72% 29.93 in 10.0 mi South 4.6 mph - N/A   Partly Cloudy
9:53 PM 82.9 °F 89.4 °F 73.9 °F 74% 29.94 in 10.0 mi Calm Calm - N/A   Clear
10:53 PM 82.0 °F 87.4 °F 73.0 °F 74% 29.95 in 10.0 mi Calm Calm - N/A   Clear
11:53 PM 82.0 °F 87.4 °F 73.0 °F 74% 29.95 in 9.0 mi Calm Calm - N/A   Clear